Tracking 30009 objects as of 7-Dec-2024
HD Live streaming from Space Station
objects crossing your sky now

ESTRELA DU SOL-TELSTAR14

Track ESTRELA DU SOL-TELSTAR14 now!
ESTRELA DU SOL-TELSTAR14 is classified as:


NORAD ID: 28137
Int'l Code: 2004-001A
Perigee: 36,192.1 km
Apogee: 36,211.2 km
Inclination: 9.9 °
Period: 1,457.0 minutes
Semi major axis: 42572 km
RCS: 12.5892 m2 (large)
Launch date: January 11, 2004
Source: United States/Brazil (USBZ)
Launch site: SEA LAUNCH (SEAL)

41 Ku-band transponders; direct-to-home video and internet to Brazil and North America.
Your satellite tracking list
Your tracking list is empty




NASA's NSSDC Master Catalog

Two Line Element Set (TLE):
1 28137U 04001A   24341.86090957 -.00000173  00000-0  00000-0 0  9996
2 28137   9.9315  49.2211 0002251 322.0464  14.3220  0.98834145 76074
Source of the keplerian elements: AFSPC